User: anonymous   Login
Location: Sandbanks Provincial Park
(47.6073°N, 57.6428°W)
Time: 12:43:37
(UTC-02:-30)
Language:

Cosmos 2034 Rocket - Orbit

View from above orbital plane
View from above orbital plane
View from above satellite
View from above satellite

Ground track
Ground track

The orbit data is extracted from the following two-line orbital elements,

1 20150U 89059B   15181.24236546  .00000015  00000-0 -74489-6 0  9992
2 20150 082.9406 266.6877 0030199 125.8423 262.6421 13.75600063301680
Epoch (UTC): 30 June 2015 05:49:00
Eccentricity: 0.0030199
inclination: 82.9406°
perigee height: 957 km
apogee height: 1002 km
right ascension of ascending node: 266.6877°
argument of perigee: 125.8423°
revolutions per day: 13.75600063
mean anomaly at epoch: 262.6421°
orbit number at epoch: 30168

The dashed part of the orbit path shows where the satellite is in the earth's shadow,  

DLR